Home > Time Zones > World Clock > Weather > India > Unnao > Past weeks

Flag for India Weather past 2 weeks in Unnao, Uttar Pradesh, India

Now
93 °F

Haze.


Feels Like: 90 °F
Forecast: 79 / 105 °F
Wind: 5 mph from Northwest

Location: Lucknow / Amausi


UV Index: 7 (High)

Visibility: 3 mi


Pressure: 29.77 "Hg

Humidity: 21%

Dew point: 48 °F

Location of UnnaoLocation

Historic Weather in Unnao

°F

Unnao temperature yesterday

Maximum temperature yesterday: 95 °F (at 1:00 PM)
Minimum temperature yesterday: 64 °F (at 6:00 AM)
Average temperature yesterday: 84 °F

Past Weeks' High & Low Weather Summary

 TemperatureHumidityPressure
High109 °F (Apr 7, 4:00 PM)100% (Apr 8, 8:30 AM)29.98 "Hg (Apr 8, 8:30 AM)
Low61 °F (Apr 11, 4:00 AM)10% (Apr 10, 2:30 PM)29.62 "Hg (Apr 17, 7:00 PM)
Average85 °F38%29.79 "Hg
* Reported Apr 6 5:30 PM — Apr 21 6:00 PM, Unnao, Weather by CustomWeather, © 2014

Note: Actual official high and low records may vary slightly from our data, if they occured in-between our weather recording intervals... More about our weather records

Advertising

Historic Weather Conditions — Data for Previous 24 hours

 ConditionsComfort  
Time TempWeatherWind HumidityBarometerVisibility
6:00 PM
Apr 21
95 °FHaze.8 mph18%29.77 "Hg3 mi
5:30 PM97 °FHaze.9 mph16%29.77 "Hg3 mi
5:00 PM99 °FHaze.14 mph16%29.77 "Hg3 mi
4:30 PM100 °FHaze.15 mph16%29.74 "Hg3 mi
4:00 PM100 °FHaze.9 mph16%29.74 "Hg3 mi
3:30 PM100 °FHaze.12 mph16%29.77 "Hg3 mi
3:00 PM100 °FHaze.14 mph16%29.77 "Hg3 mi
2:30 PM100 °FHaze.14 mph16%29.77 "Hg3 mi
2:00 PM100 °FHaze.16 mph17%29.80 "Hg3 mi
1:30 PM99 °FHaze.16 mph18%29.80 "Hg3 mi
1:00 PM99 °FHaze.14 mph19%29.80 "Hg3 mi
12:30 PM97 °FBroken clouds.9 mph20%29.83 "Hg3 mi
12:00 PM95 °FBroken clouds.10 mph22%29.83 "Hg3 mi
11:30 AM93 °FBroken clouds.8 mph23%29.86 "Hg3 mi
11:00 AM93 °FBroken clouds.12 mph24%29.86 "Hg3 mi
10:30 AM91 °FScattered clouds.10 mph24%29.86 "Hg3 mi
10:00 AM90 °FScattered clouds.12 mph26%29.86 "Hg3 mi
9:30 AM88 °FHaze.13 mph29%29.86 "Hg3 mi
9:00 AM86 °FHaze.12 mph31%29.86 "Hg3 mi
8:30 AM82 °FHaze.8 mph35%29.86 "Hg3 mi
7:30 AM75 °FHaze.6 mph50%29.83 "Hg3 mi
7:00 AM73 °FScattered clouds.3 mph50%29.83 "Hg3 mi
6:30 AM70 °FScattered clouds.2 mph53%29.80 "Hg2 mi
6:00 AM66 °FPassing clouds.2 mph56%29.80 "Hg2 mi
5:30 AM64 °FPassing clouds.No wind64%29.80 "Hg2 mi
5:00 AM64 °FPassing clouds.No wind60%29.80 "Hg2 mi
4:00 AM64 °FHaze.2 mph64%29.77 "Hg2 mi
3:00 AM64 °FHaze.2 mph60%29.77 "Hg2 mi
2:00 AM68 °FHaze.2 mph53%29.77 "Hg2 mi
1:00 AM72 °FHaze.2 mph47%29.77 "Hg3 mi
12:00 AM73 °FHaze.5 mph44%29.80 "Hg3 mi
11:00 PM
Apr 20
75 °FHaze.3 mph44%29.80 "Hg3 mi
10:00 PM81 °FHaze.3 mph32%29.80 "Hg3 mi
9:00 PM82 °FHaze.5 mph30%29.80 "Hg3 mi
8:30 PM84 °FHaze.7 mph29%29.80 "Hg3 mi
8:00 PM84 °FHaze.6 mph27%29.80 "Hg3 mi
7:30 PM86 °FHaze.7 mph27%29.80 "Hg3 mi
7:00 PM88 °FHaze.8 mph24%29.77 "Hg3 mi
Weather by CustomWeather, © 2014

See weather overview